Location: Gerlach
(40.6516°N, 119.3568°W)
Time: 15:23:27
(UTC-07:00)

ITAMSAT 1 - Pass Details

Date: 10 August 2024
Orbit: 782 x 795 km, 98.8° (Epoch: 14 September)

Event Time Altitude Azimuth Distance (km) Brightness Sun altitude
Exits shadow 21:52:21 19° 183° (S) 1,831 9.2 -18.9°
Maximum altitude 21:56:06 59° 259° (WSW) 912 8.1 -19.5°
Drops below altitude 10° 22:01:16 10° 339° (NNW) 2,370 11.1 -20.2°
Sets 22:03:39 0° 343° (NNW) 3,305 11.9 -20.5°
